Location: *
(44.1392°N, 4.8079°E)
Time: 20:35:58
(UTC+00:00)

Okean 3 Rocket - Pass Details

Date: 21 June 2021
Orbit: 616 x 644 km, 82.5° (Epoch: 02 August)

Event Time Altitude Azimuth Distance (km) Brightness Sun altitude
Exits shadow 01:53:28 17° 162° (SSE) 1,584 5.3 -16.1°
Maximum altitude 01:56:38 48° 93° (E) 809 4.3 -15.8°
Drops below altitude 10° 02:00:52 10° 20° (NNE) 1,988 7.4 -15.4°
Sets 02:03:09 0° 14° (NNE) 2,898 8.4 -15.2°
